{"data":{"norad_id":59210,"epoch":"2026-09-20T20:15:35.772192Z","epoch_age_seconds":129056,"freshness":"FRESH","line1":"1 59210U 24046K   26263.84416403  .00007558  00000+0  23463-3 0  9997","line2":"2 59210  53.1592 327.7999 0001560  67.3283 292.7884 15.34396884142942","mean_motion":15.34396884,"eccentricity":0.000156,"inclination_deg":53.1592,"raan_deg":327.7999,"arg_perigee_deg":67.3283,"mean_anomaly_deg":292.7884,"bstar":0.00023463,"rev_number":14294,"period_min":93.847948664108,"perigee_km":461.64532910919,"apogee_km":463.7796741537,"semimajor_km":6840.8495016314,"source":"CELESTRAK","updated_at":"2026-09-21T09:00:34.070003Z"}}